Wind_Speed
16 16 16 16 16 16 16 16 16 16 16 16 16 16 15 15 15 15 15 15 14 14 14 14 14 14 14 13 13 12 12 11 11 10 10 9 9 8 8 7 7 6 6
18 17 18 18 18 18 18 18 18 18 18 18 18 17 17 17 17 17 17 17 16 16 15 15 15 15 15 14 14 14 14 13 12 12 12 11 11 10 9 9 8 7 8
20 19 19 20 20 19 19 19 19 19 19 19 19 19 19 19 19 19 19 19 18 18 18 17 17 17 17 16 16 15 15 15 14 14 14 13 13 12 12 11 10 9 9
21 21 21 21 21 21 21 21 20 20 21 21 21 21 21 21 21 21 20 20 20 20 19 19 19 18 18 18 17 17 16 16 16 16 15 15 15 14 13 13 12 11 11
23 23 23 23 22 23 23 23 23 22 23 23 23 23 23 23 23 22 22 22 22 21 21 21 20 20 19 19 19 18 18 18 18 18 17 17 16 16 15 15 14 13 13
24 24 25 24 24 24 24 24 24 24 24 25 25 25 25 25 25 25 24 24 24 23 22 22 22 21 21 20 20 20 20 20 19 19 19 19 18 18 18 17 16 16 15
26 26 26 26 26 26 26 26 26 26 26 26 26 26 26 26 26 26 26 26 26 25 24 24 24 23 22 22 22 21 21 21 21 20 20 20 20 20 20 19 18 18 17
27 28 28 28 28 28 28 28 28 28 28 28 28 28 27 28 27 27 27 27 27 27 26 26 26 24 23 23 22 22 22 22 22 21 21 21 21 21 21 21 20 20 19
29 29 29 29 29 29 30 30 30 30 30 29 30 30 29 29 29 29 29 29 28 28 27 27 27 26 26 25 24 23 23 23 23 23 23 22 22 22 22 22 22 21 21
30 30 30 30 30 30 30 31 32 32 32 32 32 31 31 31 31 31 30 30 30 29 29 29 28 28 28 27 26 25 25 24 24 24 24 24 23 23 22 22 22 22 22
31 31 31 32 32 32 32 32 33 33 34 34 34 33 33 33 33 32 32 32 31 31 31 30 30 29 29 29 28 28 27 26 26 26 26 25 25 24 24 23 23 23 23
32 32 32 32 33 34 34 34 34 34 35 35 35 35 35 35 35 34 34 34 33 33 33 33 32 31 31 31 30 30 30 29 28 28 28 27 27 27 26 25 25 24 24
33 33 34 34 34 35 35 35 35 35 36 36 37 37 36 36 37 36 36 35 35 35 35 35 34 34 34 33 32 32 32 31 30 30 30 29 29 29 28 28 28 26 25
34 35 35 35 35 36 36 36 36 37 37 37 38 38 39 38 38 38 37 37 36 37 37 36 36 35 35 34 34 33 33 33 33 32 32 32 31 31 30 30 30 29 28
35 35 36 36 37 37 37 38 38 39 39 39 39 39 39 39 39 39 39 39 38 38 38 38 37 37 36 36 36 35 34 35 34 34 34 34 34 33 32 32 32 31 30
36 36 37 37 38 38 39 39 40 40 40 40 40 41 40 40 39 38 39 40 40 40 40 39 39 38 38 38 38 38 36 37 37 36 36 36 36 35 34 33 33 33 32
37 38 38 38 39 39 40 40 40 40 41 41 42 42 41 41 40 40 40 40 40 40 40 40 41 40 40 40 39 39 38 38 39 38 37 37 37 37 37 36 35 35 34
39 39 40 40 40 40 40 40 41 41 42 42 42 43 43 43 42 42 42 42 42 42 42 42 42 42 42 42 41 41 40 40 40 40 40 39 39 39 38 38 37 37 36
40 40 41 41 41 41 41 41 41 42 43 43 43 43 43 43 43 44 44 44 44 44 44 43 43 43 44 43 43 43 42 42 41 41 41 41 41 41 41 40 40 39 38
41 41 41 42 42 42 42 42 42 42 43 44 44 44 44 44 44 45 45 46 46 45 45 45 45 45 45 45 45 44 44 44 44 44 44 44 44 44 43 42 42 41 40
42 42 41 41 42 43 43 44 44 43 44 44 45 44 45 45 45 45 46 47 46 46 46 46 47 47 47 47 46 45 45 45 45 45 45 45 45 45 45 44 44 43 43
42 42 42 42 42 44 44 45 45 45 45 45 45 45 45 46 46 46 46 46 46 46 46 47 47 48 48 47 47 47 46 46 46 46 46 46 46 46 47 46 46 45 45
42 43 44 43 43 43 44 45 46 46 46 46 46 46 46 47 47 46 46 46 46 47 47 47 47 48 48 48 48 48 48 48 48 48 48 48 48 48 48 48 48 48 47
42 43 44 44 44 44 44 45 46 47 47 47 48 48 48 48 48 48 48 48 48 48 48 48 48 48 48 48 49 49 50 50 49 49 49 50 50 50 50 50 50 50 49
43 43 44 45 46 46 46 46 46 47 47 48 49 49 49 49 48 48 49 50 50 50 50 50 50 49 49 50 50 50 50 51 51 51 51 51 51 51 51 51 51 51 51
44 44 45 46 47 47 47 47 47 48 48 48 49 49 49 50 50 49 49 50 51 52 52 52 52 51 51 51 50 50 51 52 52 52 52 51 52 52 53 53 53 53 53
Wind_Direction
244 245 246 246 246 247 248 249 249 250 251 251 252 254 255 256 257 256 254 253 252 251 248 247 247 246 245 246 246 245 242 241 241 238 235 233 232 231 231 232 229 225 220
247 247 248 249 248 249 249 249 250 251 251 251 252 253 255 256 256 256 255 253 252 250 249 249 248 247 247 247 247 247 245 243 241 239 238 237 236 235 235 235 233 229 228
249 250 250 251 250 250 251 251 251 251 251 251 251 252 254 256 256 255 255 254 253 252 252 251 251 249 249 248 248 247 246 243 242 240 239 239 239 238 237 238 237 233 231
252 252 252 252 252 252 252 253 253 254 253 252 253 252 253 254 254 255 255 254 253 252 253 253 252 252 250 249 248 247 246 244 242 240 240 242 243 242 240 238 238 237 234
252 253 254 253 254 254 254 255 255 256 256 254 254 254 254 254 254 253 254 254 254 253 254 254 253 252 251 251 249 248 247 245 245 242 242 244 244 244 242 242 241 239 237
253 254 255 254 254 255 255 255 255 256 256 256 255 255 255 255 254 253 253 254 254 254 255 255 255 253 252 251 250 248 246 246 246 244 244 245 246 244 243 243 243 241 240
253 254 254 255 255 255 255 255 255 256 256 255 255 255 255 255 254 254 253 253 254 255 255 255 255 254 252 250 250 249 246 246 246 246 247 247 247 245 245 243 242 241 241
254 254 254 255 256 256 256 256 256 256 256 255 254 254 254 254 254 253 252 253 254 254 254 254 255 254 252 252 252 251 248 246 246 247 247 247 248 248 246 244 243 242 241
255 255 255 255 255 256 255 256 257 256 256 256 254 254 254 254 254 253 253 253 253 253 253 253 254 253 253 254 253 252 251 249 248 247 247 247 247 247 247 246 245 245 243
256 255 255 256 256 256 256 256 257 257 256 257 254 253 253 253 253 253 254 253 252 252 253 252 251 251 252 252 252 251 251 250 250 248 248 248 248 247 246 245 246 246 245
258 257 256 256 257 257 257 258 257 256 257 257 256 254 254 254 253 254 254 253 253 253 252 252 252 251 251 251 251 250 251 251 251 249 247 247 246 247 247 247 248 247 245
261 260 259 258 258 257 257 257 257 256 256 256 256 255 254 254 253 253 253 253 253 253 253 253 252 252 252 251 252 252 252 251 251 250 249 247 245 245 246 247 247 246 246
262 261 259 258 257 257 257 257 257 258 257 257 257 256 255 254 254 253 254 253 253 253 254 254 253 253 253 252 252 252 252 252 251 250 250 248 246 245 246 247 247 246 246
262 261 259 259 258 258 258 257 257 257 257 257 257 258 256 256 255 255 255 254 254 254 255 255 254 253 253 252 253 252 252 253 252 250 250 248 248 246 246 247 247 246 246
262 262 261 260 259 259 258 258 258 258 258 257 257 257 257 257 257 256 255 255 255 255 254 254 253 253 254 254 253 252 251 252 251 251 250 248 248 248 247 247 247 246 246
262 261 261 260 260 259 259 259 260 260 259 258 258 257 257 257 257 257 257 255 255 255 254 253 253 254 255 254 253 252 252 252 251 250 250 249 247 247 247 247 247 246 246
263 261 261 260 260 259 259 260 260 261 261 259 259 258 258 258 258 257 257 257 256 256 255 254 254 255 255 253 252 252 252 252 252 250 249 249 248 247 247 248 248 247 247
263 262 262 260 259 259 259 260 260 261 261 260 259 258 259 258 257 257 257 257 257 256 256 256 256 255 254 253 253 253 252 252 252 250 249 249 248 247 247 248 249 248 247
263 263 262 260 258 259 259 260 260 261 260 260 260 259 259 259 259 258 258 258 258 257 256 256 256 254 253 253 253 252 252 252 251 250 249 249 248 248 248 248 248 249 247
263 262 261 260 258 258 258 259 260 261 260 260 260 261 261 260 260 259 258 259 258 257 256 255 256 255 253 254 253 253 253 252 252 251 250 250 250 249 248 247 247 248 247
262 261 260 259 258 258 258 259 260 260 261 260 260 261 261 260 260 260 259 259 259 258 257 256 256 255 255 255 254 254 254 253 253 252 252 252 251 250 249 248 248 248 247
262 260 259 259 259 258 258 259 259 260 260 260 260 260 260 260 259 259 259 258 257 257 257 257 256 256 255 255 255 254 252 252 253 252 252 252 252 251 249 248 248 248 248
263 261 260 259 258 259 259 259 259 260 260 260 260 260 260 260 260 259 259 258 257 256 256 256 256 256 255 255 255 254 253 253 253 253 252 251 252 251 250 249 248 248 248
262 261 260 259 259 259 260 260 260 260 260 260 261 261 261 260 261 260 259 259 258 257 257 257 256 256 256 256 256 255 254 253 253 252 251 251 251 251 250 249 249 248 248
262 261 260 259 259 260 261 261 261 261 260 260 260 261 261 260 261 260 259 258 258 258 257 257 257 257 257 257 257 256 255 254 253 253 251 251 251 251 250 249 249 248 247
263 261 261 260 260 260 261 261 261 260 260 260 261 261 261 261 261 260 260 259 258 258 257 257 258 258 258 258 257 257 256 254 254 253 252 250 251 251 250 250 249 248 247
Height
5836 5837 5838 5838 5839 5839 5840 5840 5841 5842 5842 5843 5843 5844 5845 5845 5846 5846 5846 5846 5847 5847 5848 5848 5848 5849 5849 5850 5851 5851 5852 5853 5853 5854 5854 5855 5855 5855 5856 5856 5856 5857 5857
5834 5834 5835 5835 5836 5837 5837 5838 5838 5839 5840 5840 5841 5841 5842 5842 5843 5843 5843 5844 5844 5845 5845 5846 5846 5847 5847 5848 5848 5849 5850 5851 5851 5852 5852 5853 5854 5854 5854 5855 5855 5855 5856
5830 5831 5831 5832 5833 5833 5834 5834 5835 5836 5836 5837 5837 5838 5839 5839 5839 5840 5840 5841 5841 5842 5843 5843 5844 5844 5844 5845 5846 5846 5847 5848 5849 5850 5851 5851 5852 5852 5853 5853 5854 5854 5855
5827 5827 5828 5828 5829 5829 5830 5831 5831 5832 5833 5833 5834 5834 5835 5835 5836 5836 5837 5838 5838 5839 5839 5840 5841 5841 5842 5842 5843 5844 5844 5845 5846 5847 5848 5849 5850 5850 5851 5851 5852 5853 5853
5822 5823 5824 5824 5825 5825 5826 5827 5827 5828 5829 5829 5830 5830 5831 5831 5832 5833 5833 5834 5835 5835 5836 5836 5837 5838 5838 5839 5840 5841 5841 5842 5843 5844 5845 5846 5847 5848 5848 5849 5850 5851 5851
5818 5818 5819 5820 5820 5821 5821 5822 5823 5823 5824 5825 5825 5826 5826 5827 5828 5828 5829 5830 5831 5831 5832 5832 5833 5834 5834 5835 5836 5837 5838 5839 5840 5841 5842 5843 5844 5845 5845 5846 5847 5848 5849
5813 5813 5814 5815 5815 5816 5816 5817 5818 5818 5819 5820 5820 5821 5821 5822 5823 5824 5824 5825 5826 5827 5827 5828 5829 5829 5830 5831 5832 5833 5834 5835 5836 5837 5839 5840 5840 5841 5842 5843 5844 5845 5846
5807 5808 5809 5809 5810 5810 5811 5811 5812 5813 5813 5814 5815 5816 5816 5817 5818 5818 5819 5820 5821 5821 5822 5823 5824 5825 5826 5827 5828 5829 5830 5831 5832 5833 5834 5836 5837 5838 5839 5840 5841 5842 5843
5801 5802 5803 5803 5804 5804 5805 5806 5806 5806 5807 5808 5809 5809 5810 5811 5812 5813 5813 5814 5815 5816 5817 5818 5819 5820 5821 5822 5823 5824 5825 5826 5827 5829 5830 5831 5832 5833 5835 5836 5837 5838 5839
5794 5795 5796 5797 5797 5798 5798 5799 5799 5800 5800 5801 5802 5803 5803 5804 5805 5806 5807 5808 5809 5810 5811 5812 5813 5814 5815 5816 5817 5819 5820 5821 5822 5824 5825 5826 5828 5829 5830 5832 5833 5834 5835
5788 5788 5789 5790 5790 5791 5791 5792 5792 5792 5793 5794 5794 5795 5796 5797 5798 5799 5800 5801 5802 5803 5804 5805 5807 5808 5809 5810 5811 5813 5814 5815 5817 5818 5820 5821 5823 5824 5825 5827 5828 5829 5831
5781 5781 5781 5782 5782 5783 5783 5784 5784 5785 5785 5786 5787 5787 5788 5790 5791 5792 5793 5794 5795 5796 5798 5799 5800 5801 5802 5803 5805 5806 5808 5809 5811 5812 5814 5815 5817 5818 5820 5821 5823 5824 5826
5773 5773 5773 5774 5774 5775 5775 5776 5776 5777 5777 5778 5779 5779 5780 5781 5782 5784 5785 5786 5787 5788 5790 5791 5793 5794 5795 5796 5798 5799 5801 5802 5804 5805 5807 5809 5811 5812 5814 5816 5817 5819 5821
5765 5765 5765 5765 5766 5766 5766 5767 5768 5768 5769 5769 5770 5771 5772 5772 5773 5775 5777 5778 5779 5780 5781 5782 5784 5786 5787 5788 5790 5791 5793 5794 5796 5798 5800 5802 5804 5806 5807 5809 5811 5813 5815
5756 5756 5756 5757 5757 5757 5757 5758 5759 5759 5759 5760 5761 5761 5762 5764 5765 5766 5768 5769 5770 5771 5772 5773 5775 5777 5778 5780 5782 5783 5785 5786 5788 5790 5792 5794 5797 5799 5800 5802 5804 5806 5808
5747 5747 5747 5747 5748 5748 5748 5749 5749 5749 5750 5751 5751 5752 5753 5754 5755 5757 5758 5759 5761 5762 5763 5764 5766 5767 5769 5771 5773 5775 5776 5778 5779 5782 5784 5786 5788 5791 5793 5795 5797 5799 5801
5737 5737 5737 5738 5738 5738 5739 5739 5739 5739 5740 5741 5741 5742 5743 5744 5745 5747 5748 5749 5750 5752 5753 5754 5756 5758 5759 5761 5763 5765 5767 5769 5770 5772 5775 5777 5779 5782 5784 5786 5789 5791 5793
5727 5727 5727 5727 5728 5728 5729 5729 5729 5730 5730 5730 5731 5732 5733 5733 5735 5736 5738 5739 5740 5741 5743 5744 5746 5748 5749 5751 5753 5755 5756 5759 5761 5763 5765 5767 5770 5773 5775 5778 5780 5783 5785
5717 5717 5716 5716 5717 5718 5718 5719 5719 5719 5720 5720 5720 5721 5722 5723 5724 5725 5727 5728 5729 5730 5732 5733 5735 5737 5739 5740 5742 5744 5746 5748 5750 5753 5755 5757 5760 5763 5766 5768 5771 5774 5777
5705 5705 5705 5706 5706 5707 5707 5708 5709 5709 5709 5709 5710 5710 5711 5712 5713 5714 5715 5716 5718 5719 5721 5722 5724 5725 5727 5729 5731 5733 5735 5737 5739 5742 5744 5747 5750 5752 5755 5758 5761 5764 5768
5694 5694 5694 5695 5695 5696 5696 5697 5698 5698 5698 5699 5699 5699 5700 5701 5701 5702 5703 5705 5706 5708 5709 5710 5712 5714 5715 5717 5719 5722 5724 5726 5728 5730 5733 5735 5738 5741 5744 5747 5751 5754 5757
5682 5682 5683 5684 5684 5684 5685 5685 5686 5686 5687 5687 5687 5688 5688 5689 5689 5690 5691 5693 5694 5696 5697 5698 5700 5701 5703 5705 5707 5709 5712 5715 5717 5719 5721 5724 5727 5729 5732 5736 5739 5743 5746
5670 5671 5671 5672 5672 5672 5672 5673 5674 5674 5675 5675 5676 5676 5676 5676 5677 5678 5679 5680 5682 5684 5685 5687 5688 5690 5691 5693 5695 5697 5700 5702 5704 5707 5709 5712 5714 5717 5720 5723 5727 5731 5735
5658 5658 5658 5659 5660 5660 5660 5660 5661 5662 5663 5663 5663 5663 5664 5664 5664 5665 5666 5668 5669 5671 5673 5674 5676 5677 5679 5680 5682 5684 5687 5689 5691 5694 5696 5699 5701 5704 5707 5711 5714 5718 5722
5646 5646 5646 5647 5647 5648 5648 5649 5649 5649 5650 5650 5651 5651 5651 5651 5652 5652 5654 5655 5656 5658 5660 5661 5663 5665 5666 5668 5669 5671 5673 5675 5677 5680 5684 5686 5688 5691 5694 5698 5701 5705 5709
5634 5634 5634 5634 5635 5635 5636 5636 5636 5636 5637 5637 5638 5638 5638 5639 5639 5640 5641 5642 5643 5645 5647 5648 5650 5651 5653 5654 5656 5657 5659 5661 5664 5666 5670 5672 5675 5678 5680 5684 5688 5692 5695